CW6666 Weather Reports


Display with metric or nautical units.
time (UTC)temp
F
wind
direction
speed
MPH
gust
MPH
rain 1hr
in
rain 24hr
in
rain mn
in
humidity
%
barometer
mb
20141220191614 83 55 15.0 21.0 0.00 0.01 0.00 85 1008.3
20141220190144 83 28 19.0 20.0 0.00 0.01 0.00 85 1008.2
20141220184643 83 51 14.0 22.0 0.00 0.01 0.00 84 1008.4
20141220183142 83 56 15.0 23.0 0.00 0.01 0.00 84 1008.2
20141220181611 84 54 15.0 23.0 0.00 0.01 0.00 85 1008.2
20141220180141 83 58 17.0 25.0 0.00 0.01 0.00 84 1007.7
20141220174644 83 55 17.0 20.0 0.00 0.01 0.00 86 1007.9
20141220173140 83 42 15.0 21.0 0.00 0.01 0.00 86 1007.9
20141220171639 83 50 18.0 23.0 0.00 0.01 0.00 85 1008.2
20141220170139 83 48 20.0 21.0 0.00 0.01 0.00 85 1008.0
20141220164638 83 48 18.0 23.0 0.00 0.01 0.00 84 1007.8
20141220163138 84 50 18.0 24.0 0.00 0.01 0.00 83 1008.2
20141220161637 84 46 24.0 24.0 0.00 0.01 0.00 83 1008.4
20141220160138 83 51 18.0 23.0 0.00 0.01 0.00 83 1008.7
20141220154637 83 51 16.0 23.0 0.00 0.01 0.00 85 1008.8
20141220153136 82 39 12.0 22.0 0.00 0.01 0.00 86 1009.1
20141220151636 83 26 17.0 23.0 0.00 0.01 0.00 85 1009.2
20141220150136 84 55 19.0 23.0 0.00 0.01 0.00 84 1009.2
20141220144635 83 70 18.0 22.0 0.00 0.01 0.00 85 1009.3
20141220143137 84 57 20.0 21.0 0.00 0.01 0.00 85 1009.2
20141220141635 84 49 16.0 22.0 0.00 0.01 0.00 84 1009.2
20141220140133 84 54 15.0 23.0 0.00 0.01 0.00 84 1009.2
20141220134633 84 67 17.0 22.0 0.00 0.01 0.01 84 1009.3
20141220133132 84 53 17.0 22.0 0.00 0.01 0.01 84 1009.3
20141220131631 84 53 17.0 22.0 0.00 0.01 0.01 83 1009.2
20141220130131 84 53 20.0 23.0 0.00 0.01 0.01 83 1009.3
20141220124631 84 49 15.0 21.0 0.00 0.01 0.01 84 1009.4
20141220123130 84 41 17.0 23.0 0.00 0.01 0.01 84 1009.4
20141220121629 84 59 14.0 22.0 0.00 0.01 0.01 84 1009.4
20141220120129 84 67 15.0 24.0 0.00 0.01 0.01 83 1009.4
20141220114629 84 55 17.0 22.0 0.00 0.02 0.01 84 1009.4
20141220113128 84 74 20.0 24.0 0.00 0.02 0.01 83 1009.4
20141220111629 84 53 19.0 23.0 0.00 0.02 0.01 85 1009.3
20141220110127 84 57 17.0 26.0 0.00 0.02 0.01 83 1009.2
20141220104627 84 61 18.0 23.0 0.00 0.02 0.01 84 1009.0
20141220103127 84 65 17.0 24.0 0.00 0.02 0.01 84 1009.2
20141220101626 84 54 22.0 24.0 0.00 0.02 0.01 83 1009.0
20141220100125 84 55 18.0 24.0 0.00 0.02 0.01 84 1008.8
20141220094625 84 51 19.0 22.0 0.00 0.02 0.01 85 1008.8
20141220093128 84 61 18.0 22.0 0.00 0.02 0.01 85 1008.7
20141220091625 84 65 15.0 24.0 0.00 0.02 0.01 84 1008.4
20141220090124 84 63 20.0 25.0 0.00 0.02 0.01 82 1008.3
20141220084623 84 68 16.0 24.0 0.00 0.02 0.01 83 1008.2
20141220083123 84 57 18.0 24.0 0.00 0.02 0.01 84 1008.2
20141220081622 84 55 18.0 23.0 0.00 0.02 0.01 84 1008.2
20141220080122 84 67 19.0 24.0 0.00 0.02 0.01 84 1008.2
20141220074621 84 73 20.0 24.0 0.00 0.02 0.01 84 1007.9
20141220073121 84 57 18.0 25.0 0.00 0.02 0.01 84 1007.7
20141220071620 84 51 21.0 23.0 0.00 0.02 0.01 85 1007.7
20141220070120 85 28 19.0 22.0 0.00 0.02 0.01 84 1007.6
20141220064619 84 44 20.0 22.0 0.00 0.02 0.01 83 1007.4
20141220063119 85 57 20.0 22.0 0.00 0.02 0.01 83 1007.4
20141220061619 85 46 17.0 23.0 0.00 0.02 0.01 83 1007.3
20141220060119 85 49 19.0 23.0 0.00 0.02 0.01 82 1007.2
20141220054618 85 57 20.0 26.0 0.00 0.05 0.01 81 1007.2
20141220053118 85 48 19.0 23.0 0.00 0.05 0.01 83 1007.1
20141220051616 85 42 17.0 22.0 0.00 0.05 0.01 83 1007.1
20141220050117 85 45 20.0 23.0 0.00 0.05 0.01 82 1007.2
20141220044616 85 47 21.0 25.0 0.00 0.05 0.01 81 1007.2
20141220043117 85 53 21.0 23.0 0.00 0.05 0.01 81 1007.3
20141220041615 86 39 19.0 24.0 0.00 0.05 0.01 81 1007.4
20141220040115 86 56 19.0 25.0 0.00 0.05 0.01 80 1007.6
20141220034644 85 43 18.0 25.0 0.00 0.05 0.01 81 1007.8
20141220033144 85 50 17.0 24.0 0.00 0.05 0.01 81 1007.9
20141220031613 86 53 20.0 24.0 0.00 0.05 0.01 79 1008.2
20141220030114 86 57 20.0 24.0 0.00 0.05 0.01 79 1008.4
20141220024643 86 56 18.0 24.0 0.00 0.05 0.01 80 1008.5
20141220023142 86 59 19.0 26.0 0.00 0.05 0.01 79 1008.7
20141220021612 86 54 20.0 26.0 0.00 0.05 0.01 79 1008.8
20141220020142 86 53 21.0 28.0 0.00 0.05 0.01 79 1009.2
20141220014641 85 57 22.0 26.0 0.00 0.05 0.01 80 1009.3
20141220013140 86 59 21.0 25.0 0.00 0.05 0.01 81 1009.5
20141220011640 86 61 21.0 25.0 0.00 0.05 0.01 80 1009.8
20141220010141 86 61 19.0 26.0 0.00 0.05 0.01 81 1010.1
20141220004639 85 55 20.0 25.0 0.00 0.05 0.01 80 1010.3
20141220003139 86 57 22.0 25.0 0.00 0.05 0.01 80 1010.5
20141220001639 85 61 23.0 26.0 0.00 0.05 0.01 82 1010.7
20141220000138 85 49 20.0 24.0 0.00 0.05 0.01 82 1010.8
20141219234638 85 71 18.0 26.0 0.00 0.05 0.01 81 1010.8
20141219233138 85 40 24.0 26.0 0.00 0.05 0.01 82 1010.8
20141219231638 85 59 19.0 26.0 0.01 0.05 0.01 82 1010.8
20141219230136 84 62 18.0 27.0 0.01 0.05 0.01 81 1010.8
20141219224635 83 49 16.0 28.0 0.01 0.05 0.01 86 1010.8
20141219223134 81 32 21.0 33.0 0.01 0.05 0.01 85 1010.8
20141219221635 84 46 20.0 24.0 0.00 0.04 0.00 84 1010.6
20141219220135 83 54 21.0 27.0 0.00 0.04 0.00 85 1010.3
20141219214634 84 51 18.0 25.0 0.00 0.04 0.00 83 1010.2
20141219213132 84 57 25.0 27.0 0.00 0.05 0.00 81 1010.1
20141219211633 84 51 25.0 29.0 0.00 0.05 0.00 81 1009.8
20141219210132 83 49 20.0 26.0 0.00 0.05 0.00 83 1009.5
20141219204632 83 57 23.0 27.0 0.00 0.05 0.00 82 1009.3
20141219203132 83 49 19.0 28.0 0.00 0.05 0.00 82 1009.1
20141219201631 83 48 20.0 26.0 0.00 0.05 0.00 83 1008.8
20141219200133 82 46 19.0 21.0 0.00 0.05 0.00 86 1008.8
20141219194630 82 40 17.0 24.0 0.00 0.05 0.00 85 1008.7
20141219193129 83 56 22.0 27.0 0.00 0.05 0.00 84 1008.7